| time (UTC) | temp C | wind direction | speed KPH | gust KPH | rain 1hr cm | rain 24hr cm | rain mn cm | humidity % | barometer mb |
| 20260502215104 | 10 | 321 | 0.0 | 0.0 | 0.00 | 0.08 | 0.08 | 44 | 1016.0 |
| 20260502214104 | 10 | 286 | 0.0 | 0.0 | 0.00 | 0.08 | 0.08 | 42 | 1016.0 |
| 20260502213604 | 10 | 277 | 0.0 | 0.0 | 0.00 | 0.08 | 0.08 | 42 | 1016.0 |
| 20260502213104 | 10 | 259 | 0.0 | 0.0 | 0.00 | 0.08 | 0.08 | 42 | 1016.0 |
| 20260502212604 | 10 | 283 | 0.0 | 0.0 | 0.00 | 0.08 | 0.08 | 43 | 1016.0 |
| 20260502212105 | 10 | 358 | 0.0 | 0.0 | 0.00 | 0.08 | 0.08 | 43 | 1016.0 |
| 20260502210603 | 10 | 271 | 0.0 | 0.0 | 0.00 | 0.08 | 0.08 | 42 | 1016.1 |
| 20260502210104 | 10 | 278 | 0.0 | 0.0 | 0.00 | 0.08 | 0.08 | 45 | 1016.2 |
| 20260502205604 | 10 | 312 | 0.0 | 0.0 | 0.00 | 0.08 | 0.08 | 43 | 1016.1 |
| 20260502205104 | 10 | 13 | 0.0 | 0.0 | 0.00 | 0.08 | 0.08 | 42 | 1016.1 |
| 20260502204104 | 10 | 270 | 0.0 | 0.0 | 0.00 | 0.08 | 0.08 | 42 | 1016.1 |
| 20260502203604 | 10 | 288 | 0.0 | 0.0 | 0.00 | 0.08 | 0.08 | 42 | 1016.2 |
| 20260502203104 | 10 | 287 | 0.0 | 0.0 | 0.00 | 0.08 | 0.08 | 41 | 1016.2 |
| 20260502202604 | 10 | 254 | 0.0 | 0.0 | 0.00 | 0.08 | 0.08 | 40 | 1016.2 |
| 20260502202104 | 10 | 305 | 0.0 | 0.0 | 0.00 | 0.08 | 0.08 | 41 | 1016.2 |
| 20260502201604 | 10 | 281 | 0.0 | 0.0 | 0.00 | 0.08 | 0.08 | 41 | 1016.3 |
| 20260502201104 | 10 | 261 | 0.0 | 0.0 | 0.00 | 0.08 | 0.08 | 43 | 1016.3 |
| 20260502200104 | 10 | 268 | 0.0 | 0.0 | 0.00 | 0.08 | 0.08 | 42 | 1016.4 |
| 20260502195604 | 10 | 314 | 0.0 | 0.0 | 0.00 | 0.08 | 0.08 | 43 | 1016.5 |
| 20260502195104 | 10 | 331 | 0.0 | 0.0 | 0.00 | 0.08 | 0.08 | 42 | 1016.6 |
| 20260502194604 | 10 | 340 | 0.0 | 0.0 | 0.00 | 0.08 | 0.08 | 41 | 1016.6 |
| 20260502194104 | 10 | 350 | 0.0 | 0.0 | 0.00 | 0.08 | 0.08 | 44 | 1016.7 |
| 20260502193104 | 10 | 2 | 0.0 | 0.0 | 0.00 | 0.08 | 0.08 | 42 | 1016.7 |
| 20260502192603 | 10 | 329 | 0.0 | 0.0 | 0.00 | 0.08 | 0.08 | 42 | 1016.8 |
| 20260502192104 | 10 | 328 | 0.0 | 0.0 | 0.00 | 0.08 | 0.08 | 42 | 1016.9 |
| 20260502191604 | 10 | 10 | 0.0 | 0.0 | 0.00 | 0.08 | 0.08 | 42 | 1016.9 |
| 20260502191104 | 10 | 344 | 0.0 | 0.0 | 0.00 | 0.08 | 0.08 | 42 | 1017.0 |
| 20260502190604 | 10 | 323 | 0.0 | 0.0 | 0.00 | 0.08 | 0.08 | 44 | 1017.1 |
| 20260502185604 | 10 | 257 | 0.0 | 0.0 | 0.00 | 0.08 | 0.08 | 44 | 1017.2 |
| 20260502185104 | 10 | 280 | 0.0 | 0.0 | 0.00 | 0.08 | 0.08 | 44 | 1017.2 |
| 20260502184604 | 10 | 232 | 0.0 | 0.0 | 0.00 | 0.08 | 0.08 | 43 | 1017.2 |
| 20260502184104 | 10 | 274 | 0.0 | 0.0 | 0.00 | 0.08 | 0.08 | 43 | 1017.3 |
| 20260502183604 | 10 | 292 | 0.0 | 0.0 | 0.00 | 0.08 | 0.08 | 43 | 1017.3 |
| 20260502182604 | 9 | 326 | 0.0 | 0.0 | 0.00 | 0.08 | 0.08 | 43 | 1017.3 |
| 20260502182103 | 9 | 314 | 0.0 | 0.0 | 0.00 | 0.08 | 0.08 | 43 | 1017.3 |
| 20260502181604 | 9 | 273 | 0.0 | 0.0 | 0.00 | 0.08 | 0.08 | 43 | 1017.3 |
| 20260502181104 | 9 | 275 | 0.0 | 0.0 | 0.00 | 0.08 | 0.08 | 45 | 1017.3 |
| 20260502180604 | 9 | 317 | 0.0 | 0.0 | 0.00 | 0.08 | 0.08 | 45 | 1017.3 |
| 20260502180105 | 9 | 294 | 0.0 | 0.0 | 0.00 | 0.08 | 0.08 | 44 | 1017.4 |
| 20260502170104 | 9 | 342 | 0.0 | 0.0 | 0.00 | 0.08 | 0.08 | 45 | 1017.7 |
| 20260502164103 | 8 | 259 | 0.0 | 0.0 | 0.00 | 0.08 | 0.08 | 48 | 1017.7 |
| 20260502163604 | 8 | 296 | 0.0 | 0.0 | 0.00 | 0.08 | 0.08 | 49 | 1017.8 |
| 20260502163104 | 8 | 253 | 0.0 | 0.0 | 0.00 | 0.08 | 0.08 | 49 | 1017.8 |
| 20260502162604 | 8 | 280 | 0.0 | 0.0 | 0.00 | 0.08 | 0.08 | 50 | 1017.8 |
| 20260502162104 | 8 | 270 | 0.0 | 0.0 | 0.00 | 0.08 | 0.08 | 51 | 1017.8 |
| 20260502160604 | 8 | 1 | 0.0 | 0.0 | 0.00 | 0.08 | 0.08 | 56 | 1017.9 |
| 20260502152103 | 6 | 3 | 0.0 | 0.0 | 0.00 | 0.08 | 0.08 | 62 | 1017.8 |
| 20260502151604 | 6 | 328 | 0.0 | 0.0 | 0.00 | 0.08 | 0.08 | 62 | 1017.8 |
| 20260502151104 | 6 | 298 | 0.0 | 0.0 | 0.00 | 0.08 | 0.08 | 63 | 1017.8 |
| 20260502150604 | 6 | 351 | 0.0 | 0.0 | 0.00 | 0.08 | 0.08 | 64 | 1017.8 |
| 20260502150104 | 6 | 313 | 0.0 | 0.0 | 0.00 | 0.08 | 0.08 | 65 | 1017.7 |
| 20260502140104 | 7 | 39 | 0.0 | 0.0 | 0.00 | 0.10 | 0.08 | 69 | 1017.6 |
| 20260502130604 | 6 | 324 | 0.0 | 0.0 | 0.00 | 0.10 | 0.08 | 85 | 1017.9 |
| 20260502130104 | 6 | 329 | 0.0 | 0.0 | 0.00 | 0.10 | 0.08 | 85 | 1017.9 |
| 20260502123604 | 5 | 301 | 0.0 | 0.0 | 0.00 | 0.10 | 0.08 | 87 | 1017.8 |
| 20260502123104 | 5 | 310 | 0.0 | 0.0 | 0.00 | 0.10 | 0.08 | 87 | 1017.8 |
| 20260502122604 | 4 | 337 | 0.0 | 0.0 | 0.00 | 0.10 | 0.08 | 87 | 1017.8 |
| 20260502122103 | 4 | 337 | 0.0 | 0.0 | 0.00 | 0.10 | 0.08 | 87 | 1017.8 |
| 20260502121603 | 4 | 310 | 0.0 | 0.0 | 0.00 | 0.10 | 0.08 | 87 | 1017.8 |
| 20260502121104 | 4 | 327 | 0.0 | 0.0 | 0.00 | 0.10 | 0.08 | 87 | 1017.8 |
| 20260502120104 | 3 | 0 | 0.0 | 0.0 | 0.00 | 0.10 | 0.08 | 87 | 1017.7 |
| 20260502115604 | 3 | 0 | 0.0 | 0.0 | 0.00 | 0.10 | 0.08 | 87 | 1017.6 |
| 20260502115104 | 3 | 0 | 0.0 | 0.0 | 0.00 | 0.10 | 0.08 | 86 | 1017.7 |
| 20260502114604 | 3 | 0 | 0.0 | 0.0 | 0.00 | 0.10 | 0.08 | 86 | 1017.7 |
| 20260502114103 | 3 | 0 | 0.0 | 0.0 | 0.00 | 0.10 | 0.08 | 86 | 1017.6 |
| 20260502113104 | 3 | 0 | 0.0 | 0.0 | 0.00 | 0.10 | 0.08 | 86 | 1017.6 |
| 20260502112603 | 3 | 0 | 0.0 | 0.0 | 0.00 | 0.10 | 0.08 | 86 | 1017.5 |
| 20260502112104 | 3 | 0 | 0.0 | 0.0 | 0.00 | 0.10 | 0.08 | 86 | 1017.4 |
| 20260502111603 | 3 | 0 | 0.0 | 0.0 | 0.00 | 0.10 | 0.08 | 85 | 1017.3 |
| 20260502111104 | 3 | 0 | 0.0 | 0.0 | 0.00 | 0.10 | 0.08 | 85 | 1017.3 |
| 20260502110604 | 3 | 0 | 0.0 | 0.0 | 0.00 | 0.10 | 0.08 | 85 | 1017.3 |
| 20260502110104 | 3 | 0 | 0.0 | 0.0 | 0.00 | 0.10 | 0.08 | 85 | 1017.3 |
| 20260502105604 | 3 | 0 | 0.0 | 0.0 | 0.00 | 0.10 | 0.08 | 85 | 1017.3 |
| 20260502105103 | 3 | 0 | 0.0 | 0.0 | 0.00 | 0.10 | 0.08 | 85 | 1017.3 |
| 20260502104104 | 3 | 0 | 0.0 | 0.0 | 0.00 | 0.10 | 0.08 | 85 | 1017.2 |
| 20260502103604 | 3 | 0 | 0.0 | 0.0 | 0.00 | 0.10 | 0.08 | 85 | 1017.2 |
| 20260502103103 | 3 | 0 | 0.0 | 0.0 | 0.00 | 0.10 | 0.08 | 85 | 1017.2 |
| 20260502102604 | 3 | 0 | 0.0 | 0.0 | 0.00 | 0.10 | 0.08 | 85 | 1017.3 |
| 20260502102104 | 3 | 0 | 0.0 | 0.0 | 0.00 | 0.10 | 0.08 | 85 | 1017.3 |
| 20260502101604 | 3 | 0 | 0.0 | 0.0 | 0.00 | 0.10 | 0.08 | 85 | 1017.3 |
| 20260502101104 | 3 | 0 | 0.0 | 0.0 | 0.00 | 0.10 | 0.08 | 85 | 1017.3 |
| 20260502100604 | 3 | 0 | 0.0 | 0.0 | 0.00 | 0.10 | 0.08 | 85 | 1017.3 |
| 20260502091104 | 3 | 0 | 0.0 | 0.0 | 0.03 | 0.10 | 0.08 | 85 | 1016.9 |
| 20260502090604 | 3 | 0 | 0.0 | 0.0 | 0.03 | 0.10 | 0.08 | 84 | 1016.8 |
| 20260502090103 | 3 | 0 | 0.0 | 0.0 | 0.03 | 0.10 | 0.08 | 84 | 1016.8 |
| 20260502080104 | 3 | 0 | 0.0 | 0.0 | 0.00 | 0.08 | 0.05 | 83 | 1016.7 |
| 20260502065606 | 3 | 0 | 0.0 | 0.0 | 0.03 | 0.10 | 0.05 | 82 | 1016.6 |
| 20260502065105 | 3 | 0 | 0.0 | 0.0 | 0.03 | 0.10 | 0.05 | 82 | 1016.6 |
| 20260502064605 | 3 | 0 | 0.0 | 0.0 | 0.03 | 0.10 | 0.05 | 82 | 1016.7 |
| 20260502064106 | 3 | 0 | 0.0 | 0.0 | 0.03 | 0.10 | 0.05 | 82 | 1016.7 |
| 20260502063605 | 3 | 0 | 0.0 | 0.0 | 0.03 | 0.10 | 0.05 | 82 | 1016.7 |
| 20260502063105 | 3 | 0 | 0.0 | 0.0 | 0.05 | 0.10 | 0.05 | 81 | 1016.7 |
| 20260502062606 | 3 | 0 | 0.0 | 0.0 | 0.05 | 0.10 | 0.05 | 81 | 1016.7 |
| 20260502062106 | 4 | 0 | 0.0 | 0.0 | 0.05 | 0.10 | 0.05 | 81 | 1016.8 |
| 20260502061605 | 4 | 0 | 0.0 | 0.0 | 0.03 | 0.08 | 0.03 | 81 | 1016.8 |
| 20260502061105 | 4 | 0 | 0.0 | 0.0 | 0.03 | 0.08 | 0.03 | 81 | 1016.9 |
| 20260502060605 | 4 | 0 | 0.0 | 0.0 | 0.03 | 0.08 | 0.03 | 81 | 1017.0 |
| 20260502060106 | 4 | 0 | 0.0 | 0.0 | 0.03 | 0.08 | 0.03 | 81 | 1017.0 |
| 20260502055606 | 4 | 0 | 0.0 | 0.0 | 0.03 | 0.08 | 0.03 | 80 | 1017.1 |
| 20260502055105 | 4 | 0 | 0.0 | 0.0 | 0.03 | 0.08 | 0.03 | 80 | 1017.2 |
| 20260502054606 | 5 | 358 | 0.0 | 0.0 | 0.03 | 0.08 | 0.03 | 80 | 1017.2 |
| 20260502054106 | 5 | 359 | 0.0 | 0.0 | 0.03 | 0.08 | 0.03 | 80 | 1017.2 |
| 20260502053605 | 5 | 334 | 0.0 | 0.0 | 0.03 | 0.08 | 0.03 | 80 | 1017.2 |
| 20260502053106 | 5 | 40 | 0.0 | 0.0 | 0.00 | 0.05 | 0.00 | 80 | 1017.2 |
| 20260502052605 | 5 | 44 | 0.0 | 0.0 | 0.00 | 0.05 | 0.00 | 80 | 1017.2 |
| 20260502052105 | 5 | 44 | 0.0 | 0.0 | 0.00 | 0.05 | 0.00 | 79 | 1017.2 |
| 20260502051605 | 5 | 44 | 0.0 | 0.0 | 0.00 | 0.05 | 0.00 | 79 | 1017.2 |
| 20260502051106 | 5 | 44 | 0.0 | 0.0 | 0.00 | 0.05 | 0.00 | 79 | 1017.1 |
| 20260502050606 | 5 | 47 | 0.0 | 0.0 | 0.00 | 0.05 | 0.00 | 78 | 1017.0 |
| 20260502045605 | 5 | 49 | 0.0 | 0.0 | 0.00 | 0.05 | 0.00 | 78 | 1016.9 |
| 20260502045105 | 5 | 49 | 0.0 | 0.0 | 0.00 | 0.05 | 0.00 | 78 | 1016.9 |
| 20260502044605 | 5 | 49 | 0.0 | 0.0 | 0.00 | 0.05 | 0.00 | 77 | 1016.8 |
| 20260502043605 | 5 | 47 | 0.0 | 0.0 | 0.00 | 0.05 | 0.00 | 77 | 1016.8 |
| 20260502042105 | 5 | 44 | 0.0 | 0.0 | 0.00 | 0.05 | 0.00 | 76 | 1016.6 |
| 20260502041606 | 5 | 63 | 0.0 | 0.0 | 0.00 | 0.05 | 0.00 | 77 | 1016.6 |
| 20260502041105 | 6 | 51 | 0.0 | 0.0 | 0.00 | 0.05 | 0.00 | 77 | 1016.6 |
| 20260502040105 | 6 | 59 | 0.0 | 0.0 | 0.00 | 0.05 | 0.00 | 78 | 1016.4 |
| 20260502035105 | 6 | 57 | 0.0 | 0.0 | 0.00 | 0.05 | 0.05 | 79 | 1016.2 |
| 20260502034605 | 6 | 57 | 0.0 | 0.0 | 0.00 | 0.05 | 0.05 | 79 | 1016.2 |
| 20260502034105 | 6 | 91 | 0.0 | 0.0 | 0.00 | 0.05 | 0.05 | 79 | 1016.2 |
| 20260502033605 | 6 | 96 | 0.0 | 0.0 | 0.00 | 0.05 | 0.05 | 80 | 1016.2 |
| 20260502033105 | 6 | 99 | 0.0 | 0.0 | 0.00 | 0.05 | 0.05 | 80 | 1016.1 |
| 20260502032606 | 6 | 96 | 0.0 | 0.0 | 0.00 | 0.05 | 0.05 | 80 | 1016.1 |
| 20260502031606 | 6 | 118 | 0.0 | 0.0 | 0.00 | 0.05 | 0.05 | 79 | 1016.1 |
| 20260502031105 | 6 | 112 | 0.0 | 0.0 | 0.00 | 0.05 | 0.05 | 80 | 1016.1 |
| 20260502030605 | 6 | 98 | 0.0 | 0.0 | 0.00 | 0.05 | 0.05 | 79 | 1016.1 |
| 20260502030106 | 6 | 107 | 0.0 | 0.0 | 0.00 | 0.05 | 0.05 | 79 | 1016.1 |
| 20260502025605 | 6 | 115 | 0.0 | 0.0 | 0.00 | 0.05 | 0.05 | 79 | 1016.0 |
| 20260502025105 | 6 | 98 | 0.0 | 0.0 | 0.00 | 0.05 | 0.05 | 79 | 1016.0 |
| 20260502023606 | 6 | 98 | 0.0 | 0.0 | 0.00 | 0.05 | 0.05 | 78 | 1016.0 |
| 20260502023105 | 6 | 98 | 0.0 | 0.0 | 0.00 | 0.05 | 0.05 | 78 | 1016.1 |
| 20260502022605 | 6 | 98 | 0.0 | 0.0 | 0.00 | 0.05 | 0.05 | 77 | 1016.1 |
| 20260502022105 | 7 | 149 | 0.0 | 0.0 | 0.00 | 0.05 | 0.05 | 77 | 1016.1 |
| 20260502021605 | 7 | 155 | 0.0 | 0.0 | 0.00 | 0.05 | 0.05 | 77 | 1016.1 |
| 20260502021105 | 7 | 138 | 0.0 | 0.0 | 0.00 | 0.05 | 0.05 | 77 | 1016.0 |
| 20260502020105 | 7 | 109 | 0.0 | 0.0 | 0.00 | 0.05 | 0.05 | 76 | 1015.7 |
| 20260502015605 | 7 | 108 | 0.0 | 0.0 | 0.00 | 0.05 | 0.05 | 75 | 1015.6 |
| 20260502014606 | 7 | 143 | 0.0 | 0.0 | 0.00 | 0.05 | 0.05 | 74 | 1015.6 |
| 20260502014105 | 7 | 90 | 0.0 | 0.0 | 0.00 | 0.05 | 0.05 | 73 | 1015.5 |
| 20260502013605 | 7 | 90 | 0.0 | 0.0 | 0.00 | 0.05 | 0.05 | 73 | 1015.4 |
| 20260502013105 | 7 | 89 | 0.0 | 0.0 | 0.00 | 0.05 | 0.05 | 72 | 1015.4 |
| 20260502012605 | 7 | 89 | 0.0 | 0.0 | 0.00 | 0.05 | 0.05 | 72 | 1015.5 |
| 20260502012105 | 7 | 90 | 0.0 | 0.0 | 0.00 | 0.05 | 0.05 | 71 | 1015.4 |
| 20260502011605 | 7 | 90 | 0.0 | 0.0 | 0.00 | 0.05 | 0.05 | 71 | 1015.3 |
| 20260502011106 | 7 | 90 | 0.0 | 0.0 | 0.00 | 0.05 | 0.05 | 71 | 1015.2 |
| 20260502010605 | 7 | 89 | 0.0 | 0.0 | 0.00 | 0.05 | 0.05 | 70 | 1015.2 |
| 20260502010105 | 7 | 84 | 0.0 | 0.0 | 0.00 | 0.05 | 0.05 | 70 | 1015.0 |
| 20260502005605 | 8 | 93 | 0.0 | 0.0 | 0.00 | 0.05 | 0.05 | 68 | 1015.0 |
| 20260502004605 | 8 | 58 | 0.0 | 0.0 | 0.00 | 0.05 | 0.05 | 66 | 1015.0 |
| 20260502004105 | 8 | 9 | 0.0 | 0.0 | 0.00 | 0.05 | 0.05 | 66 | 1015.0 |
| 20260502003605 | 8 | 9 | 0.0 | 0.0 | 0.00 | 0.05 | 0.05 | 65 | 1015.0 |
| 20260502003106 | 8 | 9 | 0.0 | 0.0 | 0.00 | 0.05 | 0.05 | 65 | 1014.9 |
| 20260502002606 | 8 | 9 | 0.0 | 0.0 | 0.00 | 0.05 | 0.05 | 65 | 1014.9 |
| 20260502001605 | 8 | 19 | 0.0 | 0.0 | 0.00 | 0.05 | 0.05 | 65 | 1014.8 |
| 20260502001105 | 8 | 15 | 0.0 | 0.0 | 0.00 | 0.05 | 0.05 | 65 | 1014.7 |
| 20260502000605 | 8 | 325 | 0.0 | 0.0 | 0.00 | 0.05 | 0.05 | 65 | 1014.6 |
| 20260501235605 | 8 | 320 | 0.0 | 0.0 | 0.00 | 0.05 | 0.05 | 65 | 1014.5 |
| 20260501235105 | 8 | 302 | 0.0 | 0.0 | 0.00 | 0.05 | 0.05 | 65 | 1014.4 |
| 20260501234105 | 9 | 309 | 0.0 | 0.0 | 0.00 | 0.05 | 0.05 | 64 | 1014.4 |
| 20260501233605 | 9 | 309 | 0.0 | 0.0 | 0.00 | 0.05 | 0.05 | 64 | 1014.4 |
| 20260501233105 | 9 | 299 | 0.0 | 0.0 | 0.00 | 0.05 | 0.05 | 63 | 1014.4 |
| 20260501232605 | 9 | 296 | 0.0 | 0.0 | 0.00 | 0.05 | 0.05 | 62 | 1014.4 |
| 20260501231605 | 9 | 352 | 0.0 | 0.0 | 0.00 | 0.05 | 0.05 | 59 | 1014.4 |
| 20260501231105 | 9 | 7 | 0.0 | 0.0 | 0.00 | 0.05 | 0.05 | 59 | 1014.2 |
| 20260501230605 | 9 | 13 | 0.0 | 0.0 | 0.00 | 0.05 | 0.05 | 59 | 1014.0 |
| 20260501230106 | 9 | 13 | 0.0 | 0.0 | 0.00 | 0.05 | 0.05 | 59 | 1014.1 |
| 20260501225605 | 9 | 13 | 0.0 | 0.0 | 0.00 | 0.05 | 0.05 | 59 | 1014.1 |
| 20260501225106 | 9 | 13 | 0.0 | 0.0 | 0.00 | 0.05 | 0.05 | 59 | 1014.0 |
| 20260501224605 | 9 | 13 | 0.0 | 0.0 | 0.00 | 0.05 | 0.05 | 59 | 1014.0 |
| 20260501222605 | 10 | 17 | 0.0 | 0.0 | 0.00 | 0.05 | 0.05 | 59 | 1014.2 |
| 20260501222105 | 10 | 15 | 0.0 | 0.0 | 0.00 | 0.05 | 0.05 | 58 | 1014.2 |
| 20260501221605 | 10 | 15 | 0.0 | 0.0 | 0.00 | 0.05 | 0.05 | 57 | 1014.0 |
| 20260501220604 | 10 | 350 | 0.0 | 0.0 | 0.00 | 0.05 | 0.05 | 56 | 1013.9 |
| 20260501215604 | 10 | 348 | 0.0 | 0.0 | 0.00 | 0.05 | 0.05 | 57 | 1013.8 |